RH
83 76 51 47 42 53 68 72 74 73 74 78 76 77 76 72 69 66 66 71 65 62 61 57 58 63 60 55 50 44 36 29 33 34 30 31 26 39 46 42 85 89 70
88 71 51 48 42 41 46 59 63 68 75 81 81 87 88 74 74 62 72 88 88 81 84 86 84 78 69 62 60 56 48 39 36 30 35 39 40 35 40 51 83 94 82
91 87 55 47 43 39 42 51 68 77 74 81 78 78 89 86 85 73 60 37 58 62 59 71 91 89 77 70 66 62 60 51 44 33 38 46 74 42 27 36 92 95 88
90 86 77 55 52 42 32 30 48 68 80 84 62 58 84 85 82 87 72 52 50 52 48 48 60 98 85 84 78 74 72 66 54 43 41 83 93 82 63 32 62 90 89
88 77 57 55 53 48 43 33 29 43 56 67 67 87 88 86 87 82 78 64 76 70 61 84 90 99 96 89 87 84 82 75 59 57 57 69 76 76 73 32 35 42 68
81 53 49 48 42 45 44 46 41 35 28 26 36 67 77 83 87 83 75 73 62 59 75 83 87 62 99 92 90 86 83 75 69 70 60 73 69 74 88 62 40 53 57
52 46 47 45 45 46 48 49 52 50 45 41 35 26 22 25 42 72 81 87 88 88 89 69 50 61 76 67 82 82 87 70 64 70 79 69 69 64 83 77 46 83 82
76 74 59 60 55 54 52 50 56 58 57 53 47 52 48 28 21 26 44 61 60 64 56 53 64 74 73 76 64 48 63 68 51 66 72 65 68 74 66 66 50 89 96
71 77 81 82 79 80 78 71 56 54 53 51 53 49 59 60 53 44 36 34 31 26 41 83 84 89 81 59 48 43 58 52 49 53 70 76 69 77 79 64 65 72 86
71 70 74 75 81 89 87 82 54 57 55 54 54 55 59 64 66 71 69 60 62 54 53 72 89 88 89 86 75 57 38 45 48 46 79 73 83 82 81 74 70 64 87
61 62 69 76 86 90 80 69 74 88 83 74 66 58 78 89 65 77 70 84 81 83 77 76 81 78 78 81 85 87 61 59 63 59 82 84 78 83 80 73 64 83 74
48 49 56 39 42 46 78 69 91 89 93 98 98 74 96 98 97 76 64 85 74 72 82 92 88 82 78 78 98 99 90 62 75 89 90 79 83 87 78 72 58 80 90
41 48 45 33 30 62 88 77 81 80 76 93 89 95 87 55 43 51 54 70 63 31 48 50 59 47 78 83 76 95 96 78 82 80 79 85 83 75 71 64 52 48 84
36 44 39 26 26 34 73 76 79 82 75 87 59 31 33 29 18 15 16 17 15 18 26 22 22 41 61 72 72 77 78 89 86 93 88 89 86 83 77 66 61 45 61
35 41 41 24 27 32 61 63 66 68 54 51 35 30 51 60 28 36 24 22 24 31 37 35 34 47 50 60 63 67 72 80 73 68 65 82 83 82 83 82 75 51 45
32 37 38 32 38 43 73 52 43 42 34 34 37 25 20 34 32 73 66 50 38 26 36 61 75 74 67 64 75 75 71 73 85 78 76 76 74 68 74 82 90 58 56
31 35 42 41 48 42 50 43 36 40 47 49 40 18 19 22 19 23 34 60 64 19 17 12 18 38 60 76 78 88 86 84 92 90 84 88 88 68 71 74 84 86 68
30 33 38 36 38 35 41 43 37 43 40 53 57 33 20 19 20 26 47 43 27 44 56 31 20 15 32 59 74 73 76 88 90 93 95 82 78 81 75 75 87 84 83
30 32 34 35 29 39 39 40 39 41 39 49 59 50 31 24 23 32 46 40 30 43 50 44 38 37 32 25 44 77 75 74 75 78 82 88 81 88 86 78 72 75 77
30 33 33 34 35 36 38 34 40 39 38 43 46 51 48 45 35 30 47 46 45 50 52 54 48 51 53 50 48 43 36 31 39 47 73 77 78 82 87 80 80 71 78
31 33 35 34 36 36 38 38 37 40 42 44 43 43 47 49 47 44 45 46 47 49 51 53 54 57 55 53 50 48 48 41 46 45 55 71 76 89 97 91 83 90 87
34 35 36 36 35 36 38 36 35 35 38 40 42 43 44 44 48 50 50 48 50 49 50 52 57 57 56 54 53 52 56 53 39 63 62 73 98 98 97 98 99 99 100
33 38 38 38 35 34 36 36 34 34 34 36 37 39 44 40 53 55 54 55 54 54 58 58 54 53 56 59 54 54 60 60 56 50 45 38 47 50 61 81 100 99 95
30 34 39 40 38 35 34 35 35 33 35 35 32 31 35 42 51 55 56 56 55 52 53 55 58 58 59 58 61 64 62 60 60 62 58 53 48 37 37 45 58 85 100
29 31 36 39 40 40 37 35 35 35 34 34 36 35 35 39 43 48 54 57 57 55 54 53 53 44 48 59 65 69 68 67 66 66 66 61 55 50 47 42 44 55 58
30 31 32 39 41 41 39 38 36 36 36 39 39 39 40 44 47 49 51 50 52 54 55 53 42 51 50 44 46 47 62 67 65 62 60 59 57 54 50 46 42 42 48
Wind_Speed
6 6 6 9 8 7 5 5 2 2 2 1 2 3 2 5 7 6 3 1 3 3 4 9 11 11 12 11 10 10 10 9 8 9 13 14 10 7 3 6 10 4 5
7 8 7 9 9 10 8 6 4 4 1 1 1 1 3 5 9 9 4 1 5 8 9 11 13 16 15 14 12 11 9 8 7 5 5 7 7 6 4 12 10 9 9
10 9 6 8 10 11 9 6 4 3 2 1 1 3 6 8 9 8 9 11 21 23 25 19 15 17 16 15 13 11 8 7 6 6 3 4 4 3 6 13 12 11 11
14 2 3 6 9 12 11 8 4 2 1 2 7 5 6 7 10 12 8 15 20 24 21 24 22 17 17 12 11 11 9 8 7 6 1 5 13 12 9 12 16 13 12
8 4 5 8 10 11 11 10 7 2 3 5 2 1 3 5 10 10 13 16 19 21 22 12 12 14 15 12 11 9 10 9 9 8 6 2 10 12 12 11 13 15 14
10 10 10 10 11 10 9 8 6 4 2 3 3 4 5 5 4 2 2 10 12 19 17 19 16 19 16 10 12 10 11 10 11 9 6 9 14 14 13 9 11 11 14
7 10 10 8 8 9 8 6 4 2 1 1 2 2 5 8 10 6 5 10 13 13 12 10 19 24 26 18 19 18 13 13 11 10 8 16 17 20 14 10 13 12 12
8 11 8 8 8 8 8 7 5 4 3 2 3 1 2 5 8 10 9 10 12 14 7 4 4 15 14 13 16 17 16 14 15 12 10 12 18 15 13 12 14 15 16
7 6 5 10 14 11 11 11 8 7 6 6 5 3 1 2 6 9 9 10 11 14 10 8 11 11 11 13 13 11 14 16 16 15 11 9 18 17 16 12 15 17 19
4 3 4 4 6 10 11 12 10 8 6 6 5 2 0 2 2 5 9 10 11 12 12 11 12 14 12 10 11 12 12 10 14 15 14 17 13 16 15 16 17 18 20
1 4 4 5 4 5 3 9 8 7 7 7 6 4 3 3 1 4 8 6 8 9 12 13 14 14 13 11 8 11 14 15 14 16 17 21 21 20 19 17 19 20 21
1 3 4 8 8 8 1 5 3 5 2 1 3 5 5 7 6 4 7 7 8 11 16 16 13 15 17 14 10 9 9 8 9 16 17 22 23 20 19 19 22 22 22
3 4 9 9 9 4 3 3 7 8 3 6 3 3 7 5 3 4 4 5 10 10 11 12 17 21 24 14 8 13 9 10 15 18 15 20 23 25 23 20 24 26 25
4 6 12 8 4 3 7 6 4 6 4 6 6 3 3 3 3 3 4 5 8 8 9 10 11 12 14 21 33 27 27 17 15 21 24 26 30 33 30 28 27 29 28
7 8 11 6 4 3 8 11 12 10 10 9 8 6 7 5 4 4 5 6 6 8 9 11 12 11 10 12 12 20 33 31 32 23 25 29 31 28 32 31 29 31 31
9 11 11 8 7 6 6 10 10 12 9 9 10 8 7 8 5 7 5 7 9 9 10 13 14 14 14 15 17 17 20 21 23 28 28 26 28 31 32 32 31 29 32
12 10 12 8 11 9 12 12 6 10 8 9 10 9 8 8 7 6 7 5 10 9 9 11 14 17 19 20 20 22 22 23 22 25 26 26 28 33 30 31 32 37 33
13 13 12 10 13 12 9 12 9 12 8 10 11 11 9 8 7 6 5 7 7 4 9 11 10 12 15 16 19 24 29 27 27 26 27 29 28 30 29 27 31 36 40
15 14 13 14 13 13 14 13 13 14 12 10 12 12 11 9 7 5 7 9 7 6 9 12 11 12 14 15 17 20 24 28 28 30 29 29 30 31 29 30 29 31 37
15 16 15 16 15 16 14 14 16 16 10 17 15 13 14 10 9 7 5 10 10 6 9 14 15 13 12 14 19 24 23 22 23 26 29 30 32 32 32 31 32 33 30
15 17 17 16 17 19 16 17 15 16 15 16 13 16 14 12 12 9 5 7 5 6 9 12 13 15 16 14 19 23 23 20 16 16 21 23 27 29 30 31 30 30 33
16 17 19 18 18 20 18 17 16 17 17 21 18 21 23 17 17 12 9 9 8 11 12 11 13 16 17 17 20 23 25 29 17 11 14 13 15 21 26 29 29 29 29
17 18 19 20 20 21 24 20 21 22 26 20 21 21 19 23 20 17 15 14 13 12 11 13 16 19 20 19 20 22 27 22 29 31 31 25 21 20 19 23 25 29 31
16 20 22 20 22 23 25 27 25 25 24 24 21 25 28 25 19 16 16 16 15 14 14 15 15 17 21 26 24 23 26 29 30 34 27 29 30 29 27 27 27 25 30
14 15 19 22 21 24 26 28 31 33 31 28 25 22 21 19 19 15 15 17 22 19 19 22 23 26 27 26 26 26 27 29 30 32 36 30 26 23 25 23 25 29 31
17 16 19 23 24 25 27 30 34 34 35 28 27 26 24 22 20 17 17 20 21 21 23 22 25 25 28 32 35 36 33 31 31 31 35 35 33 31 30 29 32 32 35
Wind_Direction
21 15 76 98 98 101 89 78 25 18 17 82 134 128 152 141 118 151 144 181 201 213 255 260 251 236 223 215 214 221 225 221 223 230 234 229 230 228 182 144 145 205 188
56 15 63 74 84 86 88 95 86 35 32 50 47 96 154 173 178 182 172 101 309 299 250 241 253 249 232 225 216 221 230 233 238 244 236 222 226 234 196 177 163 207 212
110 23 36 86 97 102 100 99 70 63 63 104 139 213 203 203 194 198 183 307 287 307 295 271 252 241 236 228 228 224 232 246 258 265 268 238 263 255 237 195 190 192 218
87 104 352 80 93 95 95 101 111 94 97 169 322 270 238 232 225 227 259 266 251 257 267 263 289 232 244 234 228 220 224 248 251 243 224 151 251 269 275 214 204 204 227
102 73 83 65 69 77 92 108 126 165 267 266 274 172 225 232 235 251 266 244 242 267 267 265 236 286 265 242 230 229 235 239 247 240 229 195 244 269 278 238 212 219 224
77 81 84 87 85 81 81 79 82 120 198 274 318 284 275 249 230 229 223 194 224 239 238 253 233 307 286 285 274 268 273 243 239 240 189 250 227 257 258 253 218 207 207
75 85 93 87 70 64 58 54 50 45 78 114 148 260 277 275 279 264 225 203 234 251 268 290 287 282 235 249 270 273 253 255 237 217 218 250 260 246 247 248 216 194 191
31 41 46 33 28 19 18 17 12 4 0 339 352 8 252 271 273 284 284 264 261 264 252 110 184 217 240 241 249 259 251 239 242 220 206 251 255 258 250 246 217 209 205
86 82 38 351 355 356 354 358 357 358 350 342 337 20 49 301 301 301 291 281 270 272 263 165 167 202 233 236 244 256 250 233 226 219 222 253 245 250 251 245 225 219 212
70 130 107 54 340 349 337 335 342 348 349 340 331 328 33 259 280 294 284 290 282 277 266 247 211 200 219 251 267 242 243 231 230 222 214 236 253 248 252 246 231 219 216
145 8 322 181 244 283 330 309 337 0 7 6 2 351 66 11 321 252 287 277 280 281 279 264 253 249 236 226 251 268 242 246 253 238 223 230 236 243 251 253 234 226 221
29 356 326 312 283 298 43 296 248 289 314 17 336 338 65 235 264 260 297 271 270 265 266 263 283 280 261 255 240 255 245 232 222 226 252 242 239 252 252 256 244 232 225
291 319 307 317 326 99 236 274 284 297 341 326 304 141 242 273 281 249 283 259 265 286 280 285 265 275 258 235 279 274 243 212 218 230 231 254 252 254 258 259 249 232 232
233 268 294 305 287 230 151 172 224 198 213 212 239 213 282 291 275 261 287 275 290 293 289 300 307 320 318 277 252 271 277 261 259 243 233 233 241 247 248 253 251 237 231
247 253 277 284 277 257 206 220 221 224 227 228 238 244 225 253 262 275 276 268 264 278 273 274 286 296 304 305 277 250 265 264 263 269 265 255 252 255 253 244 249 239 236
246 243 261 261 264 251 219 251 244 238 232 221 233 246 229 241 241 243 260 279 297 289 282 283 284 287 287 283 286 278 275 277 262 253 265 264 262 258 258 248 239 232 239
248 240 244 239 252 240 240 247 246 251 226 238 242 230 229 242 247 242 251 229 262 290 284 277 278 278 276 269 271 267 265 270 267 266 268 265 269 275 267 253 240 236 233
240 234 233 216 236 240 229 241 234 252 239 238 251 252 234 234 242 249 264 273 294 302 303 307 299 286 284 283 274 270 265 264 266 265 265 273 271 267 274 262 249 238 239
241 236 232 234 231 242 227 235 223 227 236 233 234 255 245 238 241 227 261 277 306 317 317 315 313 317 306 294 286 280 274 278 272 267 264 261 271 269 269 269 268 255 250
237 237 237 241 243 235 228 226 235 248 215 226 240 233 247 237 242 232 237 295 317 326 308 309 322 323 321 318 309 304 303 286 280 272 271 266 268 265 262 266 261 261 257
232 250 245 243 243 242 238 237 240 238 236 240 236 236 246 233 259 258 211 245 277 293 290 312 311 307 309 313 311 309 309 314 292 283 283 278 269 266 262 268 265 251 258
249 247 257 252 249 249 248 248 248 254 256 252 242 246 241 248 239 245 261 258 261 263 277 288 304 304 310 313 307 313 319 314 313 279 294 277 285 274 263 262 265 269 255
267 261 256 258 252 252 256 249 255 251 244 238 238 236 249 264 242 240 246 257 260 270 280 279 279 287 298 295 297 305 309 304 311 301 304 290 287 285 283 281 265 262 263
281 264 265 262 254 253 255 258 253 252 253 254 258 260 258 257 245 239 248 258 265 265 270 282 289 283 285 296 296 291 290 295 302 305 298 298 300 290 284 280 279 273 262
288 287 277 272 260 254 250 258 256 253 246 246 243 255 254 235 229 240 258 264 263 257 256 261 267 280 281 283 286 288 286 286 288 293 298 298 293 293 296 297 288 284 279
328 300 290 278 276 270 268 257 256 256 255 249 254 251 247 247 245 246 239 249 248 253 265 264 276 272 276 278 275 275 277 281 284 286 287 290 290 288 283 278 275 283 283